Location: Wangen+im+Allg�u
(47.7098°N, 9.8383°E)
Time: 23:33:02
(UTC+01:00)

ISS - Pass Details

Date: 12 February 2018
Orbit: 402 x 407 km, 51.6° (Epoch: 23 February)

Event Time Altitude Azimuth Distance (km) Brightness Sun altitude
Rises 18:32:21 0° 290° (WNW) 2,321 1.2 -9.6°
Reaches altitude 10° 18:34:35 10° 278° (W) 1,458 0.3 -9.9°
Maximum altitude 18:37:27 28° 217° (SW) 786 -1.8 -10.4°
Drops below altitude 10° 18:40:18 10° 156° (SSE) 1,452 -1.2 -10.9°
Sets 18:42:32 0° 145° (SE) 2,308 -0.3 -11.2°
Enters shadow 18:42:32 - 144° (SE) 2,313 -0.3 -11.2°
